Theta_e
288 288 287 287 287 286 286 288 290 289 290 290 291 293 293 290 289 289 289 290 289 291
286 286 285 284 283 284 285 286 286 287 287 288 288 289 290 290 289 288 288 289 289 289
286 287 286 284 282 282 282 283 283 284 285 285 286 286 286 286 287 286 288 289 288 289
284 284 285 284 284 283 281 282 282 282 283 283 284 284 284 284 285 285 286 286 286 287
283 282 282 282 282 281 281 281 281 282 282 282 282 282 282 283 283 284 285 286 285 286
280 280 280 280 281 281 280 279 279 280 280 281 281 281 281 282 282 283 284 284 285 285
279 279 279 279 279 280 280 279 278 279 279 280 280 281 281 281 282 282 283 283 284 284
280 280 279 279 279 279 279 279 278 278 278 279 280 280 279 280 281 281 282 283 283 284
280 281 280 280 280 280 279 279 279 278 278 277 278 282 283 282 280 280 281 281 283 283
280 279 279 279 279 279 278 278 278 278 277 276 277 281 281 281 279 279 280 280 281 281
277 277 277 277 276 276 276 276 276 276 276 276 277 280 280 280 277 277 277 278 279 280
273 271 271 270 271 271 271 271 271 273 273 274 274 278 279 278 275 275 274 276 277 277
269 267 267 267 266 267 266 267 268 267 268 269 268 273 274 275 273 271 272 273 275 277
266 264 264 263 263 263 263 263 262 263 264 265 266 267 271 273 271 270 270 271 273 275
Wind_Speed
8 6 5 6 6 5 5 6 8 9 9 9 9 9 7 4 6 6 8 12 10 10
6 6 5 6 4 3 4 6 9 9 8 8 8 8 8 6 8 7 7 10 11 10
6 7 6 6 7 6 5 5 6 6 7 9 8 8 7 6 7 7 7 8 9 10
4 5 5 5 6 6 7 8 9 9 7 7 7 7 7 8 9 8 10 9 9 10
4 5 5 6 6 7 7 6 8 10 11 11 9 8 7 9 9 10 11 11 9 11
7 8 7 7 8 7 6 6 7 7 9 10 12 12 12 11 11 10 11 12 12 11
7 7 6 6 7 7 8 10 9 9 10 10 11 11 12 13 13 12 11 11 13 11
7 6 7 7 8 8 9 10 10 10 11 11 11 10 11 12 13 13 14 14 12 12
7 10 11 10 11 12 13 13 13 14 14 15 11 22 25 22 14 15 15 15 14 13
12 14 15 15 16 17 17 16 16 15 14 16 17 28 29 29 16 16 17 17 16 15
12 13 14 15 16 17 16 18 18 19 19 19 17 30 30 30 19 16 19 20 20 18
9 11 14 15 18 18 17 18 18 19 21 21 21 31 32 30 18 18 21 19 20 21
12 12 13 14 17 18 17 20 17 21 20 23 24 32 37 33 17 19 16 20 22 32
12 14 14 16 14 16 17 18 18 20 18 20 20 21 33 33 19 16 17 17 15 15
Wind_Direction
33 29 15 18 16 11 3 340 345 345 340 334 334 322 292 261 246 231 232 234 226 237
10 21 16 6 357 347 340 344 343 336 333 328 325 324 320 296 276 253 237 238 234 230
350 353 356 352 344 339 334 328 323 315 319 321 323 322 322 306 291 273 265 252 239 234
327 325 325 307 296 322 328 328 327 322 310 300 304 310 316 310 296 285 279 265 253 241
282 285 276 280 269 260 263 290 301 307 312 309 313 312 302 297 294 285 281 271 257 255
228 231 239 240 239 246 256 254 259 254 270 295 303 304 300 294 286 281 278 275 268 263
278 279 276 285 290 285 277 276 269 270 273 267 264 270 277 286 286 281 274 264 266 267
273 271 280 290 291 286 283 277 269 271 270 266 263 268 267 266 267 269 276 274 262 262
304 305 300 296 291 288 285 285 280 277 279 279 274 275 278 285 279 277 274 272 271 265
310 307 305 304 301 297 296 296 288 277 273 274 278 282 288 291 288 283 279 278 274 272
306 303 309 311 308 306 305 300 296 292 290 286 279 279 283 289 289 287 283 278 276 272
338 322 314 307 305 307 307 300 297 292 292 291 287 289 289 289 287 280 276 275 275 271
309 303 302 300 298 296 293 291 294 293 292 292 290 293 294 292 282 276 275 274 270 266
307 302 296 294 292 292 291 289 289 288 289 288 287 291 292 291 282 275 272 267 268 268